Time,TemperatureF,DewpointF,PressureIn,WindDirection,WindDirectionDegrees,WindSpeedMPH,WindSpeedGustMPH,Humidity,HourlyPrecipIn,Conditions,Clouds,dailyrainin,SoftwareType,DateUTC
2013-06-18 00:01:00,63.0,61.2,29.92,SSW,202,4.0,4.0,94,0.00,,,0.00,Weather View 32 v70,2013-06-18 04:01:00,
2013-06-18 00:06:00,63.0,60.6,29.93,SSW,202,0.0,5.0,92,0.00,,,0.00,Weather View 32 v70,2013-06-18 04:06:00,
2013-06-18 00:11:00,64.0,61.9,29.93,SSW,202,1.0,5.0,93,0.00,,,0.00,Weather View 32 v70,2013-06-18 04:11:00,
2013-06-18 00:16:00,64.0,61.9,29.93,SSW,202,0.0,5.0,93,0.00,,,0.00,Weather View 32 v70,2013-06-18 04:16:00,
2013-06-18 00:21:00,63.0,60.6,29.93,SSW,202,0.0,5.0,92,0.00,,,0.00,Weather View 32 v70,2013-06-18 04:21:00,
2013-06-18 00:26:00,63.0,60.6,29.92,SSW,202,0.0,5.0,92,0.00,,,0.00,Weather View 32 v70,2013-06-18 04:26:00,
2013-06-18 00:31:00,63.0,60.6,29.92,SSW,202,0.0,5.0,92,0.00,,,0.00,Weather View 32 v70,2013-06-18 04:31:00,
2013-06-18 00:36:00,63.0,60.6,29.93,SSW,202,0.0,5.0,92,0.00,,,0.00,Weather View 32 v70,2013-06-18 04:36:00,
2013-06-18 00:41:00,63.0,60.6,29.93,SSW,202,0.0,5.0,92,0.00,,,0.00,Weather View 32 v70,2013-06-18 04:41:00,
2013-06-18 00:46:00,63.0,60.6,29.92,SSW,202,0.0,5.0,92,0.00,,,0.00,Weather View 32 v70,2013-06-18 04:46:00,
2013-06-18 00:51:00,63.0,60.6,29.92,SSW,202,0.0,5.0,92,0.00,,,0.00,Weather View 32 v70,2013-06-18 04:51:00,
2013-06-18 00:56:00,63.0,60.6,29.92,West,270,1.0,5.0,92,0.00,,,0.00,Weather View 32 v70,2013-06-18 04:56:00,
2013-06-18 01:01:00,62.0,59.9,29.92,West,270,0.0,5.0,93,0.00,,,0.00,Weather View 32 v70,2013-06-18 05:01:00,
2013-06-18 01:06:00,62.0,60.2,29.92,West,270,0.0,3.0,94,0.00,,,0.00,Weather View 32 v70,2013-06-18 05:06:00,
2013-06-18 01:11:00,62.0,60.2,29.92,West,270,0.0,3.0,94,0.00,,,0.00,Weather View 32 v70,2013-06-18 05:11:00,
2013-06-18 01:16:00,62.0,60.2,29.92,West,270,0.0,3.0,94,0.00,,,0.00,Weather View 32 v70,2013-06-18 05:16:00,
2013-06-18 01:21:00,62.0,60.2,29.92,West,270,0.0,3.0,94,0.00,,,0.00,Weather View 32 v70,2013-06-18 05:21:00,
2013-06-18 01:26:00,62.0,60.2,29.92,West,270,0.0,3.0,94,0.00,,,0.00,Weather View 32 v70,2013-06-18 05:26:00,
2013-06-18 01:31:00,62.0,60.2,29.92,West,270,0.0,3.0,94,0.00,,,0.00,Weather View 32 v70,2013-06-18 05:31:00,
2013-06-18 01:36:00,62.0,60.2,29.92,West,270,0.0,3.0,94,0.00,,,0.00,Weather View 32 v70,2013-06-18 05:36:00,
2013-06-18 01:41:00,62.0,60.2,29.92,West,270,0.0,3.0,94,0.00,,,0.00,Weather View 32 v70,2013-06-18 05:41:00,
2013-06-18 01:46:00,61.0,59.3,29.92,West,270,0.0,3.0,94,0.00,,,0.00,Weather View 32 v70,2013-06-18 05:46:00,
2013-06-18 01:51:00,61.0,59.6,29.92,West,270,0.0,3.0,95,0.00,,,0.00,Weather View 32 v70,2013-06-18 05:51:00,
2013-06-18 01:56:00,61.0,59.6,29.93,West,270,0.0,2.0,95,0.00,,,0.00,Weather View 32 v70,2013-06-18 05:56:00,
2013-06-18 02:02:00,61.0,59.6,29.93,West,270,0.0,1.0,95,0.00,,,0.00,Weather View 32 v70,2013-06-18 06:02:00,
2013-06-18 02:07:00,61.0,59.6,29.93,West,270,0.0,1.0,95,0.00,,,0.00,Weather View 32 v70,2013-06-18 06:07:00,
2013-06-18 02:12:00,61.0,59.6,29.93,West,270,0.0,1.0,95,0.00,,,0.00,Weather View 32 v70,2013-06-18 06:12:00,
2013-06-18 02:17:00,61.0,59.6,29.93,West,270,0.0,1.0,95,0.00,,,0.00,Weather View 32 v70,2013-06-18 06:17:00,
2013-06-18 02:22:00,61.0,59.6,29.93,West,270,0.0,1.0,95,0.00,,,0.00,Weather View 32 v70,2013-06-18 06:22:00,
2013-06-18 02:27:00,61.0,59.8,29.93,West,270,0.0,1.0,96,0.00,,,0.00,Weather View 32 v70,2013-06-18 06:27:00,
2013-06-18 02:32:00,61.0,60.1,29.93,North,360,5.0,5.0,97,0.00,,,0.00,Weather View 32 v70,2013-06-18 06:32:00,
2013-06-18 02:37:00,61.0,59.8,29.93,North,360,4.0,5.0,96,0.00,,,0.00,Weather View 32 v70,2013-06-18 06:37:00,
2013-06-18 02:42:00,61.0,60.1,29.93,North,360,3.0,5.0,97,0.00,,,0.00,Weather View 32 v70,2013-06-18 06:42:00,
2013-06-18 02:49:00,61.0,59.8,29.91,NNE,22,1.0,6.0,96,0.00,,,0.00,Weather View 32 v70,2013-06-18 06:49:00,
2013-06-18 02:54:00,61.0,59.8,29.91,NNE,22,0.0,6.0,96,0.00,,,0.00,Weather View 32 v70,2013-06-18 06:54:00,
2013-06-18 02:59:00,61.0,59.6,29.91,NNE,22,0.0,6.0,95,0.00,,,0.00,Weather View 32 v70,2013-06-18 06:59:00,
2013-06-18 03:04:00,61.0,59.6,29.91,NNE,22,0.0,6.0,95,0.00,,,0.00,Weather View 32 v70,2013-06-18 07:04:00,
2013-06-18 03:09:00,61.0,59.8,29.91,NNE,22,0.0,6.0,96,0.00,,,0.00,Weather View 32 v70,2013-06-18 07:09:00,
2013-06-18 03:14:00,61.0,59.6,29.91,NNE,22,0.0,6.0,95,0.00,,,0.00,Weather View 32 v70,2013-06-18 07:14:00,
2013-06-18 03:19:00,61.0,59.8,29.91,NNE,22,2.0,6.0,96,0.00,,,0.00,Weather View 32 v70,2013-06-18 07:19:00,
2013-06-18 03:24:00,61.0,59.8,29.91,NNE,22,0.0,6.0,96,0.00,,,0.00,Weather View 32 v70,2013-06-18 07:24:00,
2013-06-18 03:29:00,61.0,59.6,29.91,NNE,22,0.0,6.0,95,0.00,,,0.00,Weather View 32 v70,2013-06-18 07:29:00,
2013-06-18 03:34:00,61.0,59.6,29.91,NNE,22,0.0,6.0,95,0.00,,,0.00,Weather View 32 v70,2013-06-18 07:34:00,
2013-06-18 03:39:00,61.0,59.6,29.91,NNE,22,0.0,6.0,95,0.00,,,0.00,Weather View 32 v70,2013-06-18 07:39:00,
2013-06-18 03:44:00,61.0,59.8,29.91,NNE,22,0.0,6.0,96,0.00,,,0.00,Weather View 32 v70,2013-06-18 07:44:00,
2013-06-18 03:49:00,60.0,58.6,29.91,NNE,22,0.0,2.0,95,0.00,,,0.00,Weather View 32 v70,2013-06-18 07:49:00,
2013-06-18 03:54:00,60.0,58.9,29.91,NNE,22,0.0,2.0,96,0.00,,,0.00,Weather View 32 v70,2013-06-18 07:54:00,
2013-06-18 03:59:00,60.0,58.9,29.91,NNE,22,0.0,2.0,96,0.00,,,0.00,Weather View 32 v70,2013-06-18 07:59:00,
2013-06-18 04:04:00,60.0,58.9,29.91,NNE,22,0.0,2.0,96,0.00,,,0.00,Weather View 32 v70,2013-06-18 08:04:00,
2013-06-18 04:09:00,60.0,59.1,29.91,NNE,22,1.0,2.0,97,0.00,,,0.00,Weather View 32 v70,2013-06-18 08:09:00,
2013-06-18 04:14:00,60.0,59.1,29.91,NNE,22,2.0,4.0,97,0.00,,,0.00,Weather View 32 v70,2013-06-18 08:14:00,
2013-06-18 04:19:00,60.0,59.1,29.91,NNE,22,0.0,4.0,97,0.00,,,0.00,Weather View 32 v70,2013-06-18 08:19:00,
2013-06-18 04:24:00,60.0,59.1,29.91,NNE,22,0.0,4.0,97,0.00,,,0.00,Weather View 32 v70,2013-06-18 08:24:00,
2013-06-18 04:29:00,60.0,59.1,29.91,NNE,22,0.0,4.0,97,0.00,,,0.00,Weather View 32 v70,2013-06-18 08:29:00,
2013-06-18 04:34:00,60.0,59.1,29.91,NNE,22,0.0,4.0,97,0.00,,,0.00,Weather View 32 v70,2013-06-18 08:34:00,
2013-06-18 04:39:00,60.0,59.1,29.91,NNE,22,0.0,4.0,97,0.00,,,0.00,Weather View 32 v70,2013-06-18 08:39:00,
2013-06-18 04:44:00,60.0,59.1,29.91,NNE,22,2.0,4.0,97,0.00,,,0.00,Weather View 32 v70,2013-06-18 08:44:00,
2013-06-18 04:49:00,60.0,59.1,29.91,NNE,22,0.0,4.0,97,0.00,,,0.00,Weather View 32 v70,2013-06-18 08:49:00,
2013-06-18 04:54:00,60.0,59.1,29.90,NNE,22,0.0,4.0,97,0.00,,,0.00,Weather View 32 v70,2013-06-18 08:54:00,
2013-06-18 04:59:00,60.0,59.1,29.90,NNE,22,0.0,4.0,97,0.00,,,0.00,Weather View 32 v70,2013-06-18 08:59:00,
2013-06-18 05:04:00,60.0,59.1,29.91,NNE,22,0.0,4.0,97,0.00,,,0.00,Weather View 32 v70,2013-06-18 09:04:00,
2013-06-18 05:09:00,59.0,58.1,29.91,NNE,22,0.0,4.0,97,0.00,,,0.00,Weather View 32 v70,2013-06-18 09:09:00,
2013-06-18 05:14:00,59.0,58.1,29.91,NNE,22,0.0,4.0,97,0.00,,,0.00,Weather View 32 v70,2013-06-18 09:14:00,
2013-06-18 05:19:00,59.0,58.1,29.91,NNE,22,0.0,2.0,97,0.00,,,0.00,Weather View 32 v70,2013-06-18 09:19:00,
2013-06-18 05:24:00,59.0,58.1,29.91,NNE,22,0.0,2.0,97,0.00,,,0.00,Weather View 32 v70,2013-06-18 09:24:00,
2013-06-18 05:29:00,59.0,58.1,29.91,NNE,22,0.0,2.0,97,0.00,,,0.00,Weather View 32 v70,2013-06-18 09:29:00,
2013-06-18 05:34:00,59.0,58.4,29.92,NNE,22,0.0,2.0,98,0.00,,,0.00,Weather View 32 v70,2013-06-18 09:34:00,
2013-06-18 05:39:00,59.0,58.7,29.92,NNE,22,0.0,2.0,99,0.00,,,0.00,Weather View 32 v70,2013-06-18 09:39:00,
2013-06-18 05:44:00,60.0,59.7,29.91,NNE,22,0.0,2.0,99,0.00,,,0.00,Weather View 32 v70,2013-06-18 09:44:00,
2013-06-18 05:49:00,60.0,59.7,29.91,NNE,22,0.0,0.0,99,0.00,,,0.00,Weather View 32 v70,2013-06-18 09:49:00,
2013-06-18 05:54:00,60.0,59.7,29.91,NNE,22,0.0,0.0,99,0.00,,,0.00,Weather View 32 v70,2013-06-18 09:54:00,
2013-06-18 05:59:00,60.0,59.7,29.91,NNE,22,1.0,3.0,99,0.00,,,0.00,Weather View 32 v70,2013-06-18 09:59:00,
2013-06-18 06:04:00,60.0,59.7,29.91,NNE,22,0.0,3.0,99,0.00,,,0.00,Weather View 32 v70,2013-06-18 10:04:00,
2013-06-18 06:09:00,59.0,58.7,29.91,NNE,22,0.0,3.0,99,0.00,,,0.00,Weather View 32 v70,2013-06-18 10:09:00,
2013-06-18 06:14:00,60.0,59.7,29.92,NNE,22,0.0,3.0,99,0.00,,,0.00,Weather View 32 v70,2013-06-18 10:14:00,
2013-06-18 06:19:00,60.0,59.7,29.92,NNE,22,0.0,3.0,99,0.00,,,0.00,Weather View 32 v70,2013-06-18 10:19:00,
2013-06-18 06:24:00,60.0,60.0,29.92,NNE,22,0.0,3.0,100,0.00,,,0.00,Weather View 32 v70,2013-06-18 10:24:00,
2013-06-18 06:29:00,60.0,59.7,29.92,NNE,22,0.0,3.0,99,0.00,,,0.00,Weather View 32 v70,2013-06-18 10:29:00,
2013-06-18 06:34:00,60.0,59.4,29.92,NNE,22,0.0,3.0,98,0.00,,,0.00,Weather View 32 v70,2013-06-18 10:34:00,
2013-06-18 06:39:00,60.0,59.1,29.92,NNE,22,0.0,3.0,97,0.00,,,0.00,Weather View 32 v70,2013-06-18 10:39:00,
2013-06-18 06:44:00,61.0,60.1,29.91,NNE,22,0.0,3.0,97,0.00,,,0.00,Weather View 32 v70,2013-06-18 10:44:00,
2013-06-18 06:49:00,61.0,60.1,29.91,NNE,22,0.0,3.0,97,0.00,,,0.00,Weather View 32 v70,2013-06-18 10:49:00,
2013-06-18 06:54:00,61.0,60.4,29.92,NNE,22,0.0,3.0,98,0.00,,,0.00,Weather View 32 v70,2013-06-18 10:54:00,
2013-06-18 06:59:00,61.0,60.4,29.92,NNE,22,0.0,3.0,98,0.00,,,0.00,Weather View 32 v70,2013-06-18 10:59:00,
2013-06-18 07:04:00,62.0,61.1,29.91,NNE,22,0.0,2.0,97,0.00,,,0.00,Weather View 32 v70,2013-06-18 11:04:00,
2013-06-18 07:09:00,62.0,61.7,29.91,NNE,22,0.0,2.0,99,0.00,,,0.00,Weather View 32 v70,2013-06-18 11:09:00,
2013-06-18 07:14:00,62.0,61.4,29.92,WNW,292,0.0,4.0,98,0.00,,,0.00,Weather View 32 v70,2013-06-18 11:14:00,
2013-06-18 07:19:00,63.0,62.7,29.92,WNW,292,0.0,4.0,99,0.00,,,0.00,Weather View 32 v70,2013-06-18 11:19:00,
2013-06-18 07:24:00,63.0,62.7,29.91,NNE,22,0.0,4.0,99,0.00,,,0.00,Weather View 32 v70,2013-06-18 11:24:00,
2013-06-18 07:29:00,63.0,62.4,29.91,NNE,22,0.0,4.0,98,0.00,,,0.00,Weather View 32 v70,2013-06-18 11:29:00,
2013-06-18 07:34:00,63.0,62.1,29.92,NNE,22,0.0,4.0,97,0.00,,,0.00,Weather View 32 v70,2013-06-18 11:34:00,
2013-06-18 07:39:00,63.0,62.1,29.92,NNE,22,0.0,4.0,97,0.00,,,0.00,Weather View 32 v70,2013-06-18 11:39:00,
2013-06-18 07:44:00,64.0,63.1,29.91,NNE,22,0.0,4.0,97,0.00,,,0.00,Weather View 32 v70,2013-06-18 11:44:00,
2013-06-18 07:49:00,64.0,62.8,29.91,NNE,22,0.0,4.0,96,0.00,,,0.00,Weather View 32 v70,2013-06-18 11:49:00,
2013-06-18 07:54:00,64.0,62.5,29.91,North,360,0.0,4.0,95,0.00,,,0.00,Weather View 32 v70,2013-06-18 11:54:00,
2013-06-18 07:59:00,64.0,62.2,29.91,WNW,292,1.0,4.0,94,0.00,,,0.00,Weather View 32 v70,2013-06-18 11:59:00,
2013-06-18 08:04:00,65.0,62.9,29.91,WNW,292,0.0,4.0,93,0.00,,,0.00,Weather View 32 v70,2013-06-18 12:04:00,
2013-06-18 08:09:00,65.0,62.9,29.91,North,360,1.0,4.0,93,0.00,,,0.00,Weather View 32 v70,2013-06-18 12:09:00,
2013-06-18 08:14:00,66.0,63.3,29.90,North,360,1.0,4.0,91,0.00,,,0.00,Weather View 32 v70,2013-06-18 12:14:00,
2013-06-18 08:19:00,66.0,63.0,29.90,NE,45,1.0,4.0,90,0.00,,,0.00,Weather View 32 v70,2013-06-18 12:19:00,
2013-06-18 08:24:00,67.0,63.0,29.90,NE,45,0.0,4.0,87,0.00,,,0.00,Weather View 32 v70,2013-06-18 12:24:00,
2013-06-18 08:29:00,67.0,62.3,29.90,NE,45,2.0,6.0,85,0.00,,,0.00,Weather View 32 v70,2013-06-18 12:29:00,
2013-06-18 08:34:00,68.0,63.3,29.89,NE,45,0.0,6.0,85,0.00,,,0.00,Weather View 32 v70,2013-06-18 12:34:00,
2013-06-18 08:39:00,68.0,62.3,29.89,NE,45,1.0,6.0,82,0.00,,,0.00,Weather View 32 v70,2013-06-18 12:39:00,
2013-06-18 08:44:00,69.0,63.3,29.89,NE,45,2.0,6.0,82,0.00,,,0.00,Weather View 32 v70,2013-06-18 12:44:00,
2013-06-18 08:49:00,69.0,62.9,29.89,NE,45,3.0,6.0,81,0.00,,,0.00,Weather View 32 v70,2013-06-18 12:49:00,
2013-06-18 08:54:00,69.0,63.3,29.89,SE,135,1.0,6.0,82,0.00,,,0.00,Weather View 32 v70,2013-06-18 12:54:00,
2013-06-18 08:59:00,70.0,64.2,29.89,NE,45,0.0,6.0,82,0.00,,,0.00,Weather View 32 v70,2013-06-18 12:59:00,
2013-06-18 09:04:00,70.0,63.9,29.89,NE,45,2.0,6.0,81,0.00,,,0.00,Weather View 32 v70,2013-06-18 13:04:00,
2013-06-18 09:09:00,70.0,63.9,29.89,East,90,0.0,6.0,81,0.00,,,0.00,Weather View 32 v70,2013-06-18 13:09:00,
2013-06-18 09:14:00,70.0,62.8,29.89,East,90,0.0,6.0,78,0.00,,,0.00,Weather View 32 v70,2013-06-18 13:14:00,
2013-06-18 09:19:00,71.0,63.8,29.89,NE,45,3.0,6.0,78,0.00,,,0.00,Weather View 32 v70,2013-06-18 13:19:00,
2013-06-18 09:24:00,71.0,63.0,29.88,NE,45,0.0,6.0,76,0.00,,,0.00,Weather View 32 v70,2013-06-18 13:24:00,
2013-06-18 09:29:00,71.0,62.6,29.88,NE,45,5.0,6.0,75,0.00,,,0.00,Weather View 32 v70,2013-06-18 13:29:00,
2013-06-18 09:34:00,72.0,63.2,29.87,West,270,0.0,6.0,74,0.00,,,0.00,Weather View 32 v70,2013-06-18 13:34:00,
2013-06-18 09:39:00,72.0,63.2,29.87,West,270,0.0,6.0,74,0.00,,,0.00,Weather View 32 v70,2013-06-18 13:39:00,
2013-06-18 09:44:00,73.0,63.4,29.87,NE,45,4.0,7.0,72,0.00,,,0.00,Weather View 32 v70,2013-06-18 13:44:00,
2013-06-18 09:50:00,73.0,64.2,29.87,East,90,0.0,7.0,74,0.00,,,0.00,Weather View 32 v70,2013-06-18 13:50:00,
2013-06-18 09:55:00,73.0,63.0,29.87,NE,45,1.0,7.0,71,0.00,,,0.00,Weather View 32 v70,2013-06-18 13:55:00,
2013-06-18 10:00:00,73.0,62.6,29.87,NE,45,0.0,8.0,70,0.00,,,0.00,Weather View 32 v70,2013-06-18 14:00:00,
2013-06-18 10:05:00,73.0,63.0,29.86,NE,45,3.0,8.0,71,0.00,,,0.00,Weather View 32 v70,2013-06-18 14:05:00,
2013-06-18 10:10:00,73.0,62.6,29.86,ENE,67,3.0,8.0,70,0.00,,,0.00,Weather View 32 v70,2013-06-18 14:10:00,
2013-06-18 10:15:00,73.0,63.4,29.87,NE,45,0.0,8.0,72,0.00,,,0.00,Weather View 32 v70,2013-06-18 14:15:00,
2013-06-18 10:20:00,74.0,63.1,29.87,NE,45,7.0,8.0,69,0.00,,,0.00,Weather View 32 v70,2013-06-18 14:20:00,
2013-06-18 10:25:00,74.0,62.7,29.85,NE,45,6.0,8.0,68,0.00,,,0.00,Weather View 32 v70,2013-06-18 14:25:00,
2013-06-18 10:30:00,74.0,64.0,29.85,NNE,22,0.0,8.0,71,0.00,,,0.00,Weather View 32 v70,2013-06-18 14:30:00,
2013-06-18 10:35:00,75.0,66.1,29.85,SE,135,0.0,8.0,74,0.00,,,0.00,Weather View 32 v70,2013-06-18 14:35:00,
2013-06-18 10:40:00,75.0,64.5,29.85,NE,45,0.0,8.0,70,0.00,,,0.00,Weather View 32 v70,2013-06-18 14:40:00,
2013-06-18 10:45:00,75.0,62.0,29.85,SW,225,1.0,8.0,64,0.00,,,0.00,Weather View 32 v70,2013-06-18 14:45:00,
2013-06-18 10:50:00,75.0,62.8,29.85,North,360,1.0,8.0,66,0.00,,,0.00,Weather View 32 v70,2013-06-18 14:50:00,
2013-06-18 10:55:00,76.0,64.2,29.84,SE,135,1.0,8.0,67,0.00,,,0.00,Weather View 32 v70,2013-06-18 14:55:00,
2013-06-18 11:00:00,76.0,64.2,29.84,West,270,0.0,7.0,67,0.00,,,0.00,Weather View 32 v70,2013-06-18 15:00:00,
2013-06-18 11:05:00,76.0,64.6,29.84,NNW,337,1.0,7.0,68,0.00,,,0.00,Weather View 32 v70,2013-06-18 15:05:00,
2013-06-18 11:10:00,76.0,62.4,29.84,ESE,112,0.0,9.0,63,0.00,,,0.00,Weather View 32 v70,2013-06-18 15:10:00,
2013-06-18 11:15:00,77.0,65.2,29.83,SW,225,0.0,9.0,67,0.00,,,0.00,Weather View 32 v70,2013-06-18 15:15:00,
2013-06-18 11:20:00,77.0,62.9,29.83,North,360,3.0,9.0,62,0.00,,,0.00,Weather View 32 v70,2013-06-18 15:20:00,
2013-06-18 11:25:00,78.0,61.0,29.82,NE,45,1.0,9.0,56,0.00,,,0.00,Weather View 32 v70,2013-06-18 15:25:00,
2013-06-18 11:30:00,78.0,63.9,29.82,SW,225,1.0,9.0,62,0.00,,,0.00,Weather View 32 v70,2013-06-18 15:30:00,
2013-06-18 11:35:00,78.0,62.0,29.81,NE,45,5.0,9.0,58,0.00,,,0.00,Weather View 32 v70,2013-06-18 15:35:00,
2013-06-18 11:40:00,79.0,64.8,29.81,SSE,157,0.0,9.0,62,0.00,,,0.00,Weather View 32 v70,2013-06-18 15:40:00,
2013-06-18 11:45:00,79.0,64.8,29.81,South,180,2.0,9.0,62,0.00,,,0.00,Weather View 32 v70,2013-06-18 15:45:00,
2013-06-18 11:50:00,79.0,62.9,29.81,SSE,157,4.0,9.0,58,0.00,,,0.00,Weather View 32 v70,2013-06-18 15:50:00,
2013-06-18 11:55:00,79.0,63.9,29.81,SW,225,2.0,9.0,60,0.00,,,0.00,Weather View 32 v70,2013-06-18 15:55:00,
2013-06-18 12:00:00,79.0,64.8,29.81,ENE,67,4.0,9.0,62,0.00,,,0.00,Weather View 32 v70,2013-06-18 16:00:00,
2013-06-18 12:05:00,78.0,64.3,29.81,NE,45,0.0,9.0,63,0.00,,,0.00,Weather View 32 v70,2013-06-18 16:05:00,
2013-06-18 12:10:00,78.0,64.8,29.81,NNE,22,3.0,9.0,64,0.00,,,0.00,Weather View 32 v70,2013-06-18 16:10:00,
2013-06-18 12:15:00,78.0,65.7,29.81,NE,45,0.0,9.0,66,0.00,,,0.00,Weather View 32 v70,2013-06-18 16:15:00,
2013-06-18 12:20:00,79.0,63.4,29.81,SW,225,3.0,9.0,59,0.00,,,0.00,Weather View 32 v70,2013-06-18 16:20:00,
2013-06-18 12:25:00,79.0,66.6,29.80,SW,225,0.0,9.0,66,0.00,,,0.00,Weather View 32 v70,2013-06-18 16:25:00,
2013-06-18 12:30:00,79.0,65.7,29.80,East,90,1.0,9.0,64,0.00,,,0.00,Weather View 32 v70,2013-06-18 16:30:00,
2013-06-18 12:35:00,80.0,66.7,29.79,South,180,2.0,9.0,64,0.00,,,0.00,Weather View 32 v70,2013-06-18 16:35:00,
2013-06-18 12:40:00,80.0,63.8,29.79,SSW,202,2.0,9.0,58,0.00,,,0.00,Weather View 32 v70,2013-06-18 16:40:00,
2013-06-18 12:45:00,80.0,65.8,29.79,NE,45,3.0,9.0,62,0.00,,,0.00,Weather View 32 v70,2013-06-18 16:45:00,
2013-06-18 12:50:00,80.0,67.1,29.79,SSE,157,1.0,9.0,65,0.00,,,0.00,Weather View 32 v70,2013-06-18 16:50:00,
2013-06-18 12:55:00,81.0,67.2,29.78,WNW,292,0.0,9.0,63,0.00,,,0.00,Weather View 32 v70,2013-06-18 16:55:00,
2013-06-18 13:00:00,81.0,67.6,29.78,NE,45,0.0,9.0,64,0.00,,,0.00,Weather View 32 v70,2013-06-18 17:00:00,
2013-06-18 13:05:00,82.0,65.2,29.77,West,270,1.0,7.0,57,0.00,,,0.00,Weather View 32 v70,2013-06-18 17:05:00,
2013-06-18 13:10:00,82.0,65.2,29.77,North,360,0.0,7.0,57,0.00,,,0.00,Weather View 32 v70,2013-06-18 17:10:00,
2013-06-18 13:15:00,82.0,66.2,29.77,SW,225,2.0,7.0,59,0.00,,,0.00,Weather View 32 v70,2013-06-18 17:15:00,
2013-06-18 13:20:00,83.0,68.1,29.77,WSW,247,0.0,7.0,61,0.00,,,0.00,Weather View 32 v70,2013-06-18 17:20:00,
2013-06-18 13:25:00,83.0,66.1,29.76,NE,45,0.0,7.0,57,0.00,,,0.00,Weather View 32 v70,2013-06-18 17:25:00,
2013-06-18 13:30:00,83.0,66.1,29.76,ESE,112,1.0,7.0,57,0.00,,,0.00,Weather View 32 v70,2013-06-18 17:30:00,
2013-06-18 13:35:00,83.0,65.1,29.76,North,360,0.0,7.0,55,0.00,,,0.00,Weather View 32 v70,2013-06-18 17:35:00,
2013-06-18 13:40:00,83.0,67.1,29.76,WNW,292,0.0,10.0,59,0.00,,,0.00,Weather View 32 v70,2013-06-18 17:40:00,
2013-06-18 13:45:00,84.0,65.5,29.75,SW,225,2.0,10.0,54,0.00,,,0.00,Weather View 32 v70,2013-06-18 17:45:00,
2013-06-18 13:50:00,84.0,65.5,29.75,WSW,247,0.0,10.0,54,0.00,,,0.00,Weather View 32 v70,2013-06-18 17:50:00,
2013-06-18 13:55:00,84.0,67.1,29.73,SSW,202,0.0,10.0,57,0.00,,,0.00,Weather View 32 v70,2013-06-18 17:55:00,
2013-06-18 14:00:00,84.0,66.6,29.73,North,360,0.0,10.0,56,0.00,,,0.00,Weather View 32 v70,2013-06-18 18:00:00,
2013-06-18 14:05:00,84.0,66.6,29.73,SSW,202,1.0,10.0,56,0.00,,,0.00,Weather View 32 v70,2013-06-18 18:05:00,
2013-06-18 14:10:00,84.0,68.1,29.73,NNE,22,1.0,10.0,59,0.00,,,0.00,Weather View 32 v70,2013-06-18 18:10:00,
2013-06-18 14:15:00,84.0,66.6,29.73,SE,135,1.0,10.0,56,0.00,,,0.00,Weather View 32 v70,2013-06-18 18:15:00,
2013-06-18 14:20:00,84.0,67.6,29.73,West,270,0.0,10.0,58,0.00,,,0.00,Weather View 32 v70,2013-06-18 18:20:00,
2013-06-18 14:25:00,84.0,67.1,29.73,ENE,67,0.0,10.0,57,0.00,,,0.00,Weather View 32 v70,2013-06-18 18:25:00,
2013-06-18 14:30:00,84.0,68.1,29.73,SE,135,0.0,10.0,59,0.00,,,0.00,Weather View 32 v70,2013-06-18 18:30:00,
2013-06-18 14:35:00,84.0,66.6,29.72,North,360,1.0,10.0,56,0.00,,,0.00,Weather View 32 v70,2013-06-18 18:35:00,
2013-06-18 14:40:00,84.0,69.0,29.72,WSW,247,0.0,7.0,61,0.00,,,0.00,Weather View 32 v70,2013-06-18 18:40:00,
2013-06-18 14:45:00,83.0,67.1,29.72,North,360,3.0,7.0,59,0.00,,,0.00,Weather View 32 v70,2013-06-18 18:45:00,
2013-06-18 14:50:00,82.0,65.7,29.72,ENE,67,1.0,7.0,58,0.00,,,0.00,Weather View 32 v70,2013-06-18 18:50:00,
2013-06-18 14:55:00,81.0,66.7,29.73,South,180,1.0,7.0,62,0.00,,,0.00,Weather View 32 v70,2013-06-18 18:55:00,
2013-06-18 15:00:00,80.0,65.8,29.73,East,90,0.0,7.0,62,0.00,,,0.00,Weather View 32 v70,2013-06-18 19:00:00,
2013-06-18 15:05:00,79.0,67.5,29.76,WSW,247,11.0,11.0,68,0.00,,,0.00,Weather View 32 v70,2013-06-18 19:05:00,
2013-06-18 15:10:00,71.0,63.8,29.76,NNE,22,10.0,26.0,78,0.00,,,0.00,Weather View 32 v70,2013-06-18 19:10:00,
2013-06-18 15:15:00,68.0,63.6,29.82,North,360,16.0,32.0,86,0.00,,,0.00,Weather View 32 v70,2013-06-18 19:15:00,
2013-06-18 15:20:00,67.0,63.3,29.82,North,360,9.0,32.0,88,0.03,,,0.03,Weather View 32 v70,2013-06-18 19:20:00,
2013-06-18 15:25:00,66.0,63.3,29.83,NE,45,1.0,32.0,91,0.06,,,0.07,Weather View 32 v70,2013-06-18 19:25:00,
2013-06-18 15:30:00,65.0,62.9,29.83,SE,135,1.0,32.0,93,0.13,,,0.13,Weather View 32 v70,2013-06-18 19:30:00,
2013-06-18 15:35:00,65.0,62.9,29.85,SW,225,2.0,32.0,93,0.14,,,0.14,Weather View 32 v70,2013-06-18 19:35:00,
2013-06-18 15:40:00,65.0,63.2,29.85,ENE,67,1.0,32.0,94,0.18,,,0.19,Weather View 32 v70,2013-06-18 19:40:00,
2013-06-18 15:45:00,65.0,63.5,29.87,NNE,22,7.0,32.0,95,0.24,,,0.24,Weather View 32 v70,2013-06-18 19:45:00,
2013-06-18 15:50:00,64.0,62.5,29.87,NNW,337,6.0,32.0,95,0.25,,,0.25,Weather View 32 v70,2013-06-18 19:50:00,
2013-06-18 15:55:00,64.0,62.8,29.87,North,360,5.0,32.0,96,0.25,,,0.25,Weather View 32 v70,2013-06-18 19:55:00,
2013-06-18 16:00:00,64.0,62.8,29.87,West,270,0.0,32.0,96,0.25,,,0.25,Weather View 32 v70,2013-06-18 20:00:00,
2013-06-18 16:05:00,64.0,62.8,29.87,North,360,7.0,32.0,96,0.26,,,0.26,Weather View 32 v70,2013-06-18 20:05:00,
2013-06-18 16:10:00,64.0,62.8,29.87,NW,315,5.0,32.0,96,0.28,,,0.28,Weather View 32 v70,2013-06-18 20:10:00,
2013-06-18 16:15:00,64.0,62.8,29.89,NNW,337,3.0,29.0,96,0.29,,,0.29,Weather View 32 v70,2013-06-18 20:15:00,
2013-06-18 16:20:00,64.0,62.8,29.89,SSW,202,0.0,25.0,96,0.27,,,0.30,Weather View 32 v70,2013-06-18 20:20:00,
2013-06-18 16:25:00,64.0,62.8,29.91,NNW,337,6.0,13.0,96,0.25,,,0.31,Weather View 32 v70,2013-06-18 20:25:00,
2013-06-18 16:30:00,64.0,63.1,29.91,SSW,202,0.0,13.0,97,0.19,,,0.33,Weather View 32 v70,2013-06-18 20:30:00,
2013-06-18 16:35:00,64.0,62.8,29.91,NNE,22,3.0,13.0,96,0.24,,,0.38,Weather View 32 v70,2013-06-18 20:35:00,
2013-06-18 16:40:00,64.0,62.8,29.91,NNE,22,6.0,13.0,96,0.22,,,0.40,Weather View 32 v70,2013-06-18 20:40:00,
2013-06-18 16:45:00,64.0,62.8,29.90,NE,45,3.0,13.0,96,0.17,,,0.41,Weather View 32 v70,2013-06-18 20:45:00,
2013-06-18 16:50:00,64.0,62.8,29.90,NE,45,4.0,13.0,96,0.17,,,0.42,Weather View 32 v70,2013-06-18 20:50:00,
2013-06-18 16:55:00,64.0,63.1,29.89,North,360,6.0,13.0,97,0.18,,,0.43,Weather View 32 v70,2013-06-18 20:55:00,
2013-06-18 17:00:00,64.0,63.1,29.89,NE,45,5.0,11.0,97,0.18,,,0.43,Weather View 32 v70,2013-06-18 21:00:00,
2013-06-18 17:05:00,64.0,63.1,29.88,NNE,22,2.0,11.0,97,0.17,,,0.43,Weather View 32 v70,2013-06-18 21:05:00,
2013-06-18 17:10:00,64.0,63.1,29.88,NNW,337,2.0,13.0,97,0.15,,,0.43,Weather View 32 v70,2013-06-18 21:10:00,
2013-06-18 17:15:00,64.0,63.1,29.88,NE,45,7.0,13.0,97,0.14,,,0.43,Weather View 32 v70,2013-06-18 21:15:00,
2013-06-18 17:20:00,64.0,62.8,29.88,North,360,9.0,13.0,96,0.13,,,0.43,Weather View 32 v70,2013-06-18 21:20:00,
2013-06-18 17:25:00,64.0,62.8,29.88,NW,315,0.0,13.0,96,0.12,,,0.43,Weather View 32 v70,2013-06-18 21:25:00,
2013-06-18 17:31:00,64.0,63.1,29.88,North,360,6.0,13.0,97,0.11,,,0.43,Weather View 32 v70,2013-06-18 21:31:00,
2013-06-18 17:36:00,64.0,63.1,29.87,NE,45,2.0,13.0,97,0.06,,,0.44,Weather View 32 v70,2013-06-18 21:36:00,
2013-06-18 17:41:00,64.0,63.1,29.87,ESE,112,0.0,13.0,97,0.04,,,0.44,Weather View 32 v70,2013-06-18 21:41:00,
2013-06-18 17:46:00,64.0,63.4,29.88,NW,315,1.0,13.0,98,0.03,,,0.44,Weather View 32 v70,2013-06-18 21:46:00,
2013-06-18 17:51:00,64.0,63.1,29.88,NNE,22,1.0,13.0,97,0.02,,,0.44,Weather View 32 v70,2013-06-18 21:51:00,
2013-06-18 17:56:00,64.0,63.1,29.88,NE,45,0.0,13.0,97,0.01,,,0.44,Weather View 32 v70,2013-06-18 21:56:00,
2013-06-18 18:01:00,64.0,63.1,29.88,East,90,0.0,13.0,97,0.02,,,0.45,Weather View 32 v70,2013-06-18 22:01:00,
2013-06-18 18:06:00,64.0,63.1,29.89,NE,45,0.0,13.0,97,0.03,,,0.46,Weather View 32 v70,2013-06-18 22:06:00,
2013-06-18 18:11:00,64.0,63.4,29.89,NNW,337,0.0,13.0,98,0.04,,,0.47,Weather View 32 v70,2013-06-18 22:11:00,
2013-06-18 18:16:00,64.0,63.4,29.89,NE,45,0.0,13.0,98,0.05,,,0.48,Weather View 32 v70,2013-06-18 22:16:00,
2013-06-18 18:21:00,64.0,63.4,29.89,North,360,4.0,13.0,98,0.06,,,0.49,Weather View 32 v70,2013-06-18 22:21:00,
2013-06-18 18:26:00,64.0,63.4,29.89,North,360,3.0,11.0,98,0.07,,,0.50,Weather View 32 v70,2013-06-18 22:26:00,
2013-06-18 18:31:00,64.0,63.4,29.89,North,360,1.0,11.0,98,0.08,,,0.51,Weather View 32 v70,2013-06-18 22:31:00,
2013-06-18 18:36:00,64.0,63.4,29.89,NE,45,3.0,9.0,98,0.09,,,0.53,Weather View 32 v70,2013-06-18 22:36:00,
2013-06-18 18:41:00,64.0,63.4,29.89,NE,45,1.0,9.0,98,0.10,,,0.54,Weather View 32 v70,2013-06-18 22:41:00,
2013-06-18 18:46:00,64.0,63.4,29.89,NE,45,1.0,9.0,98,0.11,,,0.55,Weather View 32 v70,2013-06-18 22:46:00,
2013-06-18 18:51:00,64.0,63.4,29.89,North,360,0.0,9.0,98,0.11,,,0.55,Weather View 32 v70,2013-06-18 22:51:00,
2013-06-18 18:56:00,64.0,63.4,29.90,NNW,337,0.0,8.0,98,0.12,,,0.56,Weather View 32 v70,2013-06-18 22:56:00,
2013-06-18 19:01:00,64.0,63.4,29.90,ENE,67,1.0,8.0,98,0.12,,,0.57,Weather View 32 v70,2013-06-18 23:01:00,
2013-06-18 19:06:00,64.0,63.4,29.90,NE,45,3.0,8.0,98,0.12,,,0.58,Weather View 32 v70,2013-06-18 23:06:00,
2013-06-18 19:11:00,64.0,63.4,29.90,NE,45,3.0,8.0,98,0.12,,,0.59,Weather View 32 v70,2013-06-18 23:11:00,
2013-06-18 19:16:00,64.0,63.4,29.89,East,90,3.0,8.0,98,0.12,,,0.60,Weather View 32 v70,2013-06-18 23:16:00,
2013-06-18 19:21:00,64.0,63.4,29.89,North,360,6.0,8.0,98,0.12,,,0.61,Weather View 32 v70,2013-06-18 23:21:00,
2013-06-18 19:26:00,64.0,63.4,29.89,East,90,2.0,8.0,98,0.11,,,0.61,Weather View 32 v70,2013-06-18 23:26:00,
2013-06-18 19:31:00,63.0,61.8,29.89,North,360,1.0,11.0,96,0.11,,,0.62,Weather View 32 v70,2013-06-18 23:31:00,
2013-06-18 19:36:00,63.0,61.8,29.89,East,90,2.0,11.0,96,0.09,,,0.62,Weather View 32 v70,2013-06-18 23:36:00,
2013-06-18 19:41:00,63.0,61.8,29.89,North,360,1.0,11.0,96,0.08,,,0.62,Weather View 32 v70,2013-06-18 23:41:00,
2013-06-18 19:46:00,63.0,61.8,29.89,NE,45,2.0,11.0,96,0.07,,,0.62,Weather View 32 v70,2013-06-18 23:46:00,
2013-06-18 19:51:00,63.0,62.1,29.89,East,90,3.0,11.0,97,0.07,,,0.62,Weather View 32 v70,2013-06-18 23:51:00,
2013-06-18 19:56:00,63.0,62.1,29.89,NNW,337,3.0,11.0,97,0.06,,,0.62,Weather View 32 v70,2013-06-18 23:56:00,
2013-06-18 20:01:00,63.0,62.1,29.89,NE,45,6.0,11.0,97,0.05,,,0.62,Weather View 32 v70,2013-06-19 00:01:00,
2013-06-18 20:06:00,63.0,62.1,29.90,NW,315,3.0,11.0,97,0.04,,,0.62,Weather View 32 v70,2013-06-19 00:06:00,
2013-06-18 20:12:00,63.0,62.1,29.90,NNE,22,4.0,11.0,97,0.03,,,0.62,Weather View 32 v70,2013-06-19 00:12:00,
2013-06-18 20:17:00,63.0,62.1,29.90,NNW,337,0.0,11.0,97,0.02,,,0.62,Weather View 32 v70,2013-06-19 00:17:00,
2013-06-18 20:22:00,62.0,61.1,29.90,NE,45,4.0,11.0,97,0.01,,,0.62,Weather View 32 v70,2013-06-19 00:22:00,
2013-06-18 20:27:00,62.0,61.1,29.89,NNE,22,3.0,11.0,97,0.01,,,0.62,Weather View 32 v70,2013-06-19 00:27:00,
2013-06-18 20:32:00,62.0,61.1,29.89,North,360,2.0,10.0,97,0.00,,,0.62,Weather View 32 v70,2013-06-19 00:32:00,
2013-06-18 20:37:00,62.0,61.1,29.90,ENE,67,2.0,10.0,97,0.00,,,0.62,Weather View 32 v70,2013-06-19 00:37:00,
2013-06-18 20:42:00,62.0,61.1,29.90,NNE,22,3.0,10.0,97,0.01,,,0.63,Weather View 32 v70,2013-06-19 00:42:00,
2013-06-18 20:47:00,62.0,61.1,29.90,North,360,7.0,10.0,97,0.01,,,0.63,Weather View 32 v70,2013-06-19 00:47:00,
2013-06-18 20:52:00,62.0,61.1,29.90,NNE,22,6.0,10.0,97,0.01,,,0.63,Weather View 32 v70,2013-06-19 00:52:00,
2013-06-18 20:57:00,62.0,61.1,29.90,NNE,22,6.0,10.0,97,0.01,,,0.63,Weather View 32 v70,2013-06-19 00:57:00,
2013-06-18 21:02:00,62.0,61.1,29.90,NNW,337,6.0,10.0,97,0.01,,,0.63,Weather View 32 v70,2013-06-19 01:02:00,
2013-06-18 21:07:00,62.0,61.1,29.90,North,360,5.0,10.0,97,0.01,,,0.63,Weather View 32 v70,2013-06-19 01:07:00,
2013-06-18 21:12:00,62.0,61.1,29.90,East,90,2.0,10.0,97,0.01,,,0.63,Weather View 32 v70,2013-06-19 01:12:00,
2013-06-18 21:17:00,62.0,61.1,29.91,NE,45,6.0,10.0,97,0.01,,,0.63,Weather View 32 v70,2013-06-19 01:17:00,
2013-06-18 21:22:00,62.0,60.5,29.91,North,360,7.0,11.0,95,0.01,,,0.63,Weather View 32 v70,2013-06-19 01:22:00,
2013-06-18 21:27:00,61.0,59.8,29.91,NNE,22,1.0,13.0,96,0.01,,,0.63,Weather View 32 v70,2013-06-19 01:27:00,
2013-06-18 21:32:00,61.0,59.6,29.91,NE,45,6.0,13.0,95,0.01,,,0.63,Weather View 32 v70,2013-06-19 01:32:00,
2013-06-18 21:37:00,61.0,59.6,29.91,East,90,4.0,13.0,95,0.01,,,0.63,Weather View 32 v70,2013-06-19 01:37:00,
2013-06-18 21:42:00,61.0,59.6,29.91,North,360,8.0,13.0,95,0.00,,,0.63,Weather View 32 v70,2013-06-19 01:42:00,
2013-06-18 21:47:00,61.0,59.6,29.92,ENE,67,2.0,13.0,95,0.00,,,0.63,Weather View 32 v70,2013-06-19 01:47:00,
2013-06-18 21:52:00,61.0,59.6,29.92,WNW,292,3.0,13.0,95,0.00,,,0.63,Weather View 32 v70,2013-06-19 01:52:00,
2013-06-18 21:57:00,61.0,59.6,29.93,NE,45,0.0,13.0,95,0.00,,,0.63,Weather View 32 v70,2013-06-19 01:57:00,
2013-06-18 22:02:00,61.0,59.6,29.93,ENE,67,3.0,13.0,95,0.00,,,0.63,Weather View 32 v70,2013-06-19 02:02:00,
2013-06-18 22:07:00,61.0,59.6,29.93,NNE,22,4.0,13.0,95,0.00,,,0.63,Weather View 32 v70,2013-06-19 02:07:00,
2013-06-18 22:12:00,61.0,59.6,29.93,NE,45,2.0,13.0,95,0.00,,,0.63,Weather View 32 v70,2013-06-19 02:12:00,
2013-06-18 22:17:00,61.0,59.6,29.93,North,360,6.0,13.0,95,0.00,,,0.63,Weather View 32 v70,2013-06-19 02:17:00,
2013-06-18 22:22:00,61.0,59.6,29.93,East,90,1.0,13.0,95,0.00,,,0.63,Weather View 32 v70,2013-06-19 02:22:00,
2013-06-18 22:27:00,61.0,59.6,29.93,ENE,67,3.0,11.0,95,0.00,,,0.63,Weather View 32 v70,2013-06-19 02:27:00,
2013-06-18 22:32:00,61.0,59.3,29.93,ENE,67,6.0,11.0,94,0.00,,,0.63,Weather View 32 v70,2013-06-19 02:32:00,
2013-06-18 22:37:00,61.0,59.3,29.93,ENE,67,4.0,11.0,94,0.00,,,0.63,Weather View 32 v70,2013-06-19 02:37:00,
2013-06-18 22:42:00,60.0,58.6,29.93,NNE,22,3.0,11.0,95,0.00,,,0.63,Weather View 32 v70,2013-06-19 02:42:00,
2013-06-18 22:47:00,60.0,58.6,29.93,North,360,5.0,9.0,95,0.00,,,0.63,Weather View 32 v70,2013-06-19 02:47:00,
2013-06-18 22:52:00,60.0,58.6,29.93,East,90,2.0,9.0,95,0.00,,,0.63,Weather View 32 v70,2013-06-19 02:52:00,
2013-06-18 22:57:00,60.0,58.6,29.92,North,360,9.0,9.0,95,0.00,,,0.63,Weather View 32 v70,2013-06-19 02:57:00,
2013-06-18 23:02:00,60.0,58.6,29.92,NE,45,4.0,9.0,95,0.00,,,0.63,Weather View 32 v70,2013-06-19 03:02:00,
2013-06-18 23:08:00,60.0,58.6,29.93,East,90,2.0,9.0,95,0.00,,,0.63,Weather View 32 v70,2013-06-19 03:08:00,
2013-06-18 23:13:00,60.0,58.6,29.93,NNE,22,3.0,9.0,95,0.00,,,0.63,Weather View 32 v70,2013-06-19 03:13:00,
2013-06-18 23:18:00,60.0,58.6,29.93,NE,45,1.0,10.0,95,0.00,,,0.63,Weather View 32 v70,2013-06-19 03:18:00,
2013-06-18 23:23:00,60.0,58.6,29.93,North,360,6.0,10.0,95,0.00,,,0.63,Weather View 32 v70,2013-06-19 03:23:00,
2013-06-18 23:28:00,60.0,58.6,29.93,North,360,5.0,10.0,95,0.00,,,0.63,Weather View 32 v70,2013-06-19 03:28:00,
2013-06-18 23:33:00,60.0,58.0,29.93,East,90,5.0,13.0,93,0.00,,,0.63,Weather View 32 v70,2013-06-19 03:33:00,
2013-06-18 23:38:00,60.0,58.3,29.93,NE,45,5.0,13.0,94,0.00,,,0.63,Weather View 32 v70,2013-06-19 03:38:00,
2013-06-18 23:43:00,60.0,57.7,29.94,North,360,6.0,13.0,92,0.00,,,0.63,Weather View 32 v70,2013-06-19 03:43:00,
2013-06-18 23:48:00,60.0,58.3,29.94,North,360,4.0,13.0,94,0.00,,,0.63,Weather View 32 v70,2013-06-19 03:48:00,
2013-06-18 23:53:00,60.0,58.3,29.94,North,360,4.0,13.0,94,0.00,,,0.63,Weather View 32 v70,2013-06-19 03:53:00,
2013-06-18 23:58:00,60.0,58.6,29.94,NW,315,5.0,13.0,95,0.00,,,0.63,Weather View 32 v70,2013-06-19 03:58:00,